Regional Weather Roundup
Issued by NWS

Home | Current Version | Previous Version | Text Only | Print | Product List | Glossary Off
Versions: 1 2 3 4 5 6 7 8 9 10 11 12 13 14 15 16 17 18 19 20 21 22 23 24 25 26 27 28 29 30 31 32 33 34 35 36 37 38 39 40 41 42 43 44 45 46 47 48 49 50

000
ASUS45 KABQ 091410
RWRNM
NEW MEXICO REGIONAL WEATHER ROUNDUP
NATIONAL WEATHER SERVICE ALBUQUERQUE NM
700 AM MST TUE FEB 09 2016

NOTE: "FAIR" MEANS FEW OR NO CLOUDS BELOW 12,000 FEET AGL WITH NO
       SIGNIFICANT WEATHER OR OBSTRUCTIONS TO VISION.

      THIS PRODUCT IS RELEASED AS TWO VERSIONS.  ONE VERSION NEAR
      THE TOP OF THE HOUR CONTAINING PRELIMINARY DATA FROM ALBUQUERQUE
      AND OTHER STATIONS.  A FINAL VERSION WITH ADDITIONAL DATA IS
      ISSUED ABOUT 10 MINUTES AFTER THE HOUR.

NMZ501-503-504-510>518-091500-
NORTHWEST PLATEAU/NORTHCENTRAL MOUNTAINS

CITY           SKY/WX    TMP DP  RH WIND       PRES   REMARKS
FARMINGTON     CLOUDY    22  19  89 E3        30.44R
LOS ALAMOS     CLOUDY    36  19  49 N6        30.42R WCI  31
SANTA FE       CLOUDY    28  20  71 N12       30.39S WCI  18
TAOS             N/A     18  10  73 N5        30.43  WCI  11
ANGEL FIRE     FAIR      -3  -6  87 CALM      30.45R

$$
NMZ402-403-502-505>509-091500-
WESTCENTRAL MOUNTAINS/SOUTHWEST MOUNTAINS

CITY           SKY/WX    TMP DP  RH WIND       PRES   REMARKS
GALLUP         CLEAR     18  16  92 CALM      30.46R
GRANTS         CLEAR     12  10  91 NW7       30.46S WCI   2
SILVER CITY      N/A     27  18  69 NW3       30.41R

$$
NMZ407-409-411-412-091500-
SOUTHERN DESERTS

CITY           SKY/WX    TMP DP  RH WIND       PRES   REMARKS
LORDSBURG      FAIR      27  18  69 S7        30.37R WCI  19
DEMING         PTCLDY    25  15  66 NE5       30.39R WCI  19
LAS CRUCES     CLEAR     27  17  66 NW8       30.40R WCI  19
HOLLOMAN AFB   CLEAR     24  13  62 S7        30.38S WCI  16
ALAMOGORDO     CLOUDY    23  14  68 S6        30.39S WCI  16
T OR C         CLEAR     35  20  54 NW8       30.38S WCI  29

$$
NMZ519>523-091500-
CENTRAL VALLEYS/CENTRAL HIGHLANDS

CITY           SKY/WX    TMP DP  RH WIND       PRES   REMARKS
ALBUQUERQUE    CLOUDY    30  21  69 N7        30.42R WCI  23
DOUBLE EAGLE   CLEAR     19  16  86 VRB6      30.42R WCI  11
MORIARTY ARPT  FAIR      15  11  85 CALM      30.41R
CLINES CORNERS CLOUDY    28  19  69 NW13      30.36R WCI  17
BELEN          FAIR      25  18  74 N8        30.42R WCI  16
SOCORRO        FAIR      29  19  65 NW6       30.41R WCI  23

$$
NMZ524>526-539-540-091500-
SOUTHCENTRAL MOUNTAINS

CITY           SKY/WX    TMP DP  RH WIND       PRES   REMARKS
RUIDOSO          N/A     32  16  51 W9        30.41R WCI  24

$$
NMZ527>531-091500-
NORTHEAST HIGHLANDS/NORTHEAST PLAINS

CITY           SKY/WX    TMP DP  RH WIND       PRES   REMARKS
LAS VEGAS      CLOUDY    26  15  63 VRB5      30.36R WCI  20
RATON          CLOUDY    17  13  84 E8        30.38R WCI   7
CLAYTON        CLOUDY    33  18  53 W12       30.36S WCI  24

$$
NMZ532>537-091500-
EASTCENTRAL PLAINS

CITY           SKY/WX    TMP DP  RH WIND       PRES   REMARKS
TUCUMCARI      CLOUDY    24  16  71 W8        30.37F WCI  15
CANNON AFB     CLOUDY    28  15  59 NW8       30.39S WCI  19
CLOVIS AIRPORT CLOUDY    25  14  63 NW9       30.39S WCI  15

$$
NMZ028-029-538-091500-
SOUTHEAST PLAINS

CITY           SKY/WX    TMP DP  RH WIND       PRES   REMARKS
ROSWELL        CLOUDY    25  15  66 W6        30.41S WCI  18
ARTESIA        CLOUDY    25  16  68 W9        30.42F WCI  15
CARLSBAD       CLOUDY    24  15  68 W6        30.42S WCI  17
HOBBS          CLEAR     25  16  68 W7        30.41S WCI  17


$$



USA.gov is the U.S. government's official web portal to all federal, state and local government web resources and services.